Regional Weather Roundup
Issued by NWS

Home | Current Version | Previous Version | Graphics & Text | Print | Product List | Glossary On
Versions: 1 2 3 4 5 6 7 8 9 10 11 12 13 14 15 16 17 18 19 20 21 22 23 24 25 26 27 28 29 30 31 32 33 34 35 36 37 38 39 40 41 42 43 44 45 46 47 48 49 50
535
ASUS44 KMEG 271010
RWRTN
TENNESSEE HOURLY STATE WEATHER ROUNDUP
NATIONAL WEATHER SERVICE MEMPHIS TN
400 AM CST MON FEB 27 2017

TNZ002-004-019-021-049-052-054-088>092-271100-
WEST TENNESSEE

CITY           SKY/WX    TMP DP  RH WIND       PRES   REMARKS
MEMPHIS INTL   LGT RAIN  48  46  93 SE14G22   30.06F
NWS MEMPHIS      N/A     47 N/A N/A MISG        N/A
JACKSON        LGT RAIN  47  45  93 SE8       30.11F
UNION CITY     MOCLDY    46  46 100 SE15      30.07F
PARIS          CLOUDY    45  41  87 SE8       30.13F
HUNTINGDON     CLOUDY    48  45  87 S8        30.12F
$$

TNZ008-025-027-028-033-062-065-066-271100-
NORTH MIDDLE TENNESSEE

CITY           SKY/WX    TMP DP  RH WIND       PRES   REMARKS
NASHVILLE      LGT RAIN  46  39  76 S5        30.20F
PORTLAND       CLOUDY    45  43  93 SE3       30.20F
CLARKSVILLE    LGT RAIN  45  41  86 SE7       30.17S
SMYRNA         CLOUDY    46  30  53 E5        30.22S
COOKEVILLE     MOCLDY    43  34  70 N5        30.20R
GALLATIN       CLOUDY    46  43  87 NE3       30.23S
CROSSVILLE     CLOUDY    43  22  43 SE5       30.20F
$$

TNZ061-075-076-078-094-096-097-271100-
SOUTH MIDDLE TENNESSEE

CITY           SKY/WX    TMP DP  RH WIND       PRES   REMARKS
FAYETTEVILLE   PTCLDY    48  28  46 SE6       30.16S
TULLAHOMA      CLEAR     41  28  60 N6        30.18S
WINCHESTER     CLEAR     52  23  32 SE7       30.18S
MCMINNVILLE    CLEAR     43  30  61 N7        30.20R
COLUMBIA       CLEAR     45  36  70 E5        30.16F
SHELBYVILLE    CLEAR     46  34  61 N5        30.20S
$$

TNZ017-018-042-046-047-271100-
NORTHEAST TENNESSEE

CITY           SKY/WX    TMP DP  RH WIND       PRES   REMARKS
TRI CITIES     CLOUDY    32  26  78 CALM      30.27R
ELIZABETHTON   CLOUDY    37  25  60 CALM      30.27R
$$

TNZ012-013-036-069-073-074-271100-
CENTRAL EAST TENNESSEE

CITY           SKY/WX    TMP DP  RH WIND       PRES   REMARKS
KNOXVILLE      MOCLDY    38  26  62 NE6       30.24R WCI  33
OAK RIDGE      MOCLDY    38  28  67 CALM      30.27R
GATLINBURG     CLEAR     32  27  80 CALM      30.26R
MORRISTOWN     MOCLDY    37  23  56 CALM      30.24S
JACKSBORO      MOCLDY    34  32  93 CALM      30.29R
$$

TNZ083-085-099-271100-
SOUTHEAST TENNESSEE

CITY           SKY/WX    TMP DP  RH WIND       PRES   REMARKS
CHATTANOOGA    PTCLDY    44  32  62 N3        30.24R
$$

SKY/WX REPORTED AS FAIR MEANS FEW OR NO CLOUDS BELOW
12 THOUSAND FEET.





USA.gov is the U.S. government's official web portal to all federal, state and local government web resources and services.